Location: Alphen
(52.1351°N, 4.6549°E)
Time: 01:49:55
(UTC+00:00)

Cosmos 540 Rocket - Pass Details

Date: 27 January 2021
Orbit: 739 x 754 km, 74.1° (Epoch: 26 February)

Event Time Altitude Azimuth Distance (km) Brightness Sun altitude
Exits shadow 05:01:40 56° 265° (W) 886 3.4 -22.4°
Maximum altitude 05:02:17 61° 299° (WNW) 848 3.4 -22.3°
Drops below altitude 10° 05:07:24 10° 20° (NNE) 2,279 6.1 -21.5°
Sets 05:09:49 0° 24° (NNE) 3,209 7.0 -21.2°
